Content
SEND FEEDBACK

Daily
Averages
Monthly
Summary
United States of America

LANCASTER, KENTUCKY


Home > North America > United States > Kentucky
Elevation: 103 feet     Latitude: 37 37N     Longitude: 084 35W

WEATHER
 
SELECT A DAY
Number of Records: 151,927;   Date Range: 3/25/08 - 9/15/14
 
SHARE

PRINT THIS DATA

[ ← Previous Day ]
WEATHER ALMANAC - JANUARY 31, 2013
[ Next Day → ]
[ °C ]   °F
Weather ElementAverageHighLow
Temperature31.2 °F33.8 °F (2:35 pm)24.8 °F (11:35 pm)
Dewpoint23.2 °F32 °F (10:35 pm)17.6 °F (5:55 am)
Humidity72.6 %100 % (10:35 pm)60 % (11:15 am)
Barometer29.93 in30.05 in (11:55 pm)29.73 in (12:35 am)
Wind Speed13.8 mph24.2 mph (1:55 am)
Wind Gust40.3 mph (11:15 pm)
Weather ElementAverage
Visibility8.7 mi
Wind DirectionW (271.5 °)

Weather ElementTotal
Precipitation---
Heating Degree Days35.7 (Base 65)
Averaged from 71 records on January 31, 2013
WEATHER CONDITIONS BREAKOUT
WIND DIRECTION BREAKOUT
WEATHER BY HOUR - JANUARY 31, 2013
[ °C ]   °F
Local TimeTemperatureDewpointHumidityBarometerVisibilityWind DirectionWind SpeedGust SpeedPrecipitationEventsConditions
12:35 AM32.0 °F28.4 °F87 %29.73 in10.0 miWest (270°)17.3 mph32.2 mphOvercast
12:55 AM32.0 °F26.6 °F80 %29.75 in10.0 miWest (280°)11.5 mph27.6 mphOvercast
1:15 AM32.0 °F26.6 °F80 %29.76 in10.0 miWest (280°)18.4 mph24.2 mphSnowLight Snow
1:35 AM32.0 °F24.8 °F75 %29.77 in10.0 miWest (270°)19.6 mph31.1 mphOvercast
1:55 AM32.0 °F23.0 °F69 %29.78 in10.0 miWNW (290°)24.2 mph29.9 mphOvercast
2:15 AM32.0 °F24.8 °F75 %29.79 in10.0 miWest (280°)11.5 mph24.2 mphSnowLight Snow
2:35 AM32.0 °F26.6 °F80 %29.80 in7.0 miWest (280°)19.6 mph33.4 mphSnowLight Snow
2:55 AM32.0 °F24.8 °F75 %29.81 in10.0 miWNW (290°)15.0 mph32.2 mphSnowLight Snow
3:15 AM30.2 °F23.0 °F75 %29.82 in10.0 miWNW (290°)18.4 mph25.3 mphSnowLight Snow
3:35 AM30.2 °F23.0 °F75 %29.83 in10.0 miWNW (300°)13.8 mph24.2 mphSnowLight Snow
3:55 AM30.2 °F23.0 °F75 %29.84 in10.0 miWNW (300°)15.0 mph25.3 mphSnowLight Snow
4:15 AM30.2 °F21.2 °F69 %29.84 in10.0 miWNW (300°)11.5 mphSnowLight Snow
4:35 AM28.4 °F23.0 °F80 %29.85 in7.0 miWNW (290°)16.1 mph21.9 mphSnowLight Snow
4:55 AM28.4 °F23.0 °F80 %29.86 in7.0 miWest (280°)8.1 mph18.4 mphSnowLight Snow
5:15 AM28.4 °F24.8 °F86 %29.86 in5.0 miWest (270°)9.2 mphSnowLight Snow
5:35 AM28.4 °F21.2 °F74 %29.87 in10.0 miWest (270°)12.7 mph23.0 mphSnowLight Snow
5:55 AM28.4 °F17.6 °F64 %29.87 in10.0 miWNW (290°)18.4 mph32.2 mphOvercast
6:15 AM28.4 °F19.4 °F69 %29.88 in10.0 miWest (270°)13.8 mph23.0 mphOvercast
6:35 AM28.4 °F21.2 °F74 %29.89 in10.0 miWest (280°)8.1 mph23.0 mphSnowLight Snow
6:55 AM28.4 °F21.2 °F74 %29.90 in7.0 miWest (270°)11.5 mph17.3 mphSnowLight Snow
7:15 AM28.4 °F21.2 °F74 %29.91 in10.0 miWest (270°)10.4 mph16.1 mphSnowLight Snow
7:35 AM28.4 °F21.2 °F74 %29.91 in10.0 miWest (260°)12.7 mph18.4 mphOvercast
7:55 AM30.2 °F19.4 °F64 %29.92 in10.0 miWest (270°)16.1 mph26.5 mphOvercast
8:15 AM30.2 °F19.4 °F64 %29.93 in10.0 miWest (270°)10.4 mph21.9 mphOvercast
8:35 AM30.2 °F19.4 °F64 %29.94 in10.0 miWest (260°)15.0 mph21.9 mphOvercast
8:55 AM28.4 °F19.4 °F69 %29.96 in10.0 miWest (280°)11.5 mph23.0 mphOvercast
9:15 AM28.4 °F19.4 °F69 %29.97 in7.0 miWNW (290°)15.0 mph24.2 mphSnowLight Snow
9:35 AM28.4 °F21.2 °F74 %29.97 in5.0 miWest (270°)13.8 mph18.4 mphSnowLight Snow
9:55 AM30.2 °F21.2 °F69 %29.99 in10.0 miWest (270°)13.8 mph24.2 mphSnowLight Snow
10:15 AM30.2 °F21.2 °F69 %29.99 in10.0 miWest (260°)17.3 mph27.6 mphOvercast
10:35 AM30.2 °F21.2 °F69 %29.99 in10.0 miWest (280°)10.4 mph23.0 mphOvercast
10:55 AM30.2 °F19.4 °F64 %30.00 in10.0 miWest (280°)17.3 mph27.6 mphOvercast
11:15 AM32.0 °F19.4 °F60 %30.01 in10.0 miWest (280°)15.0 mph21.9 mphOvercast
11:35 AM30.2 °F21.2 °F69 %30.01 in10.0 miWest (260°)10.4 mph20.7 mphOvercast
11:55 AM32.0 °F21.2 °F64 %30.01 in10.0 miWest (280°)12.7 mph18.4 mphOvercast
12:15 PM32.0 °F21.2 °F64 %30.01 in10.0 miWest (260°)16.1 mph20.7 mphOvercast
12:35 PM32.0 °F21.2 °F64 %30.00 in10.0 miWest (260°)16.1 mph27.6 mphSnowLight Snow
12:55 PM32.0 °F23.0 °F69 %29.99 in10.0 miWest (270°)16.1 mph24.2 mphOvercast
1:15 PM32.0 °F21.2 °F64 %29.99 in10.0 miWest (260°)18.4 mph25.3 mphOvercast
1:35 PM32.0 °F21.2 °F64 %29.99 in10.0 miWest (270°)19.6 mph32.2 mphOvercast
1:55 PM32.0 °F21.2 °F64 %29.97 in10.0 miWest (270°)17.3 mph28.8 mphOvercast
2:15 PM32.0 °F21.2 °F64 %29.96 in10.0 miWest (270°)16.1 mph21.9 mphMostly Cloudy
2:35 PM33.8 °F21.2 °F60 %29.97 in10.0 miWest (270°)11.5 mph21.9 mphOvercast
2:55 PM33.8 °F21.2 °F60 %29.97 in10.0 miWest (280°)13.8 mph19.6 mphOvercast
3:15 PM33.8 °F21.2 °F60 %29.97 in10.0 miWest (280°)11.5 mph20.7 mphOvercast
3:35 PM33.8 °F21.2 °F60 %29.97 in10.0 miWest (280°)16.1 mph23.0 mphOvercast
3:55 PM33.8 °F21.2 °F60 %29.97 in10.0 miWest (270°)12.7 mph23.0 mphOvercast
4:15 PM33.8 °F21.2 °F60 %29.96 in10.0 miWest (270°)10.4 mph20.7 mphMostly Cloudy
4:35 PM33.8 °F21.2 °F60 %29.96 in10.0 miWest (270°)13.8 mph18.4 mphMostly Cloudy
4:55 PM33.8 °F21.2 °F60 %29.95 in10.0 miWest (270°)10.4 mph20.7 mphMostly Cloudy
5:15 PM33.8 °F21.2 °F60 %29.95 in10.0 miWest (270°)8.1 mphMostly Cloudy
5:35 PM33.8 °F23.0 °F65 %29.96 in10.0 miWSW (250°)10.4 mphOvercast
5:55 PM33.8 °F23.0 °F65 %29.96 in10.0 miWSW (250°)10.4 mph18.4 mphOvercast
6:15 PM33.8 °F23.0 °F65 %29.96 in10.0 miWest (260°)10.4 mphOvercast
6:35 PM33.8 °F23.0 °F65 %29.96 in10.0 miWSW (250°)10.4 mph19.6 mphOvercast
6:55 PM33.8 °F23.0 °F65 %29.96 in10.0 miWSW (250°)8.1 mphOvercast
7:15 PM33.8 °F23.0 °F65 %29.97 in10.0 miWSW (240°)11.5 mph18.4 mphOvercast
7:35 PM33.8 °F26.6 °F75 %29.98 in10.0 miWSW (250°)11.5 mph21.9 mphSnowLight Snow
7:55 PM33.8 °F28.4 °F81 %29.97 in10.0 miWSW (250°)9.2 mphOvercast
8:15 PM33.8 °F28.4 °F81 %29.96 in10.0 miWSW (250°)11.5 mph19.6 mphSnowLight Snow
8:35 PM32.0 °F28.4 °F87 %29.96 in10.0 miWSW (250°)13.8 mph19.6 mphSnowLight Snow
8:55 PM32.0 °F30.2 °F93 %29.95 in7.0 miWSW (240°)9.2 mph17.3 mphSnowLight Snow
9:15 PM32.0 °F30.2 °F93 %29.94 in4.0 miWSW (240°)11.5 mph17.3 mphSnowLight Snow
9:35 PM32.0 °F30.2 °F93 %29.94 in4.0 miWSW (240°)10.4 mphSnowLight Snow
9:55 PM32.0 °F30.2 °F93 %29.94 in5.0 miWSW (240°)9.2 mphSnowLight Snow
10:15 PM32.0 °F30.2 °F93 %29.94 in4.0 miWest (260°)12.7 mph17.3 mphSnowLight Snow
10:35 PM32.0 °F32.0 °F100 %29.96 in0.8 miWest (280°)11.5 mph19.6 mphSnowSnow
10:55 PM32.0 °F28.4 °F87 %29.96 in2.0 miWest (280°)21.9 mph31.1 mphSnowLight Snow
11:15 PM28.4 °F24.8 °F86 %30.00 in0.5 miNW (310°)21.9 mph40.3 mphSnowSnow
11:35 PM24.8 °F23.0 °F93 %30.03 in0.8 miNW (320°)23.0 mph32.2 mphSnowLight Snow
11:55 PM24.8 °F21.2 °F86 %30.05 in2.0 miNW (320°)17.3 mph24.2 mphSnowLight Snow
Hourly data recorded from KDVK, located miles away from Lancaster, Kentucky







STORIES FROM OUR PARTNERS